Other Public Products
Issued by NWS Grand Forks, ND

Home | Current Version | Previous Version | Text Only | Print | Product List | Glossary Off
Versions: 1 2 3 4 5 6 7 8 9 10 11 12 13 14 15 16 17 18 19 20 21 22 23 24 25 26 27 28 29 30 31 32 33 34 35 36 37 38 39 40 41 42 43 44 45 46 47 48 49 50

000
FPUS83 KFGF 051331
OPUFGF
PRAIRIE TO PINES WEATHER ROUNDUP
NATIONAL WEATHER SERVICE EASTERN NORTH DAKOTA/GRAND FORKS ND
800 AM CDT THU MAY 05 2016

 **SATELLITE DATA USED TO AUGMENT SKY COVER AT AUTOMATED STATIONS**
 *****  WEATHER ACROSS EASTERN NORTH DAKOTA  *****

CITY           SKY/WX    TMP DP  RH WIND       PRES   REMARKS
GRAND FORKS    MOSUNNY   58  39  49 S10       29.84S
GRAND FORKS AF SUNNY     68  43  40 W18       29.83R
GRAND CITY NWS NOT AVBL
BUXTON           N/A     43  43  97 S9          N/A
DEVILS LAKE    SUNNY     60  46  59 W10       29.88R
FARGO          SUNNY     57  34  41 S12       29.91R
WAHPETON ARPT  SUNNY     55  32  41 S8        29.96S
$$

 *****  WEATHER ACROSS CENTRAL AND WESTERN NORTH DAKOTA  *****

CITY           SKY/WX    TMP DP  RH WIND       PRES   REMARKS
JAMESTOWN      SUNNY     62  43  49 W9        29.90S
BISMARCK       SUNNY     61  46  57 SW3       29.93R
MINOT          SUNNY     68  42  38 SW18      29.85R
MINOT AFB      SUNNY     66  45  45 SW16G23   29.83R
GARRISON         N/A     58  44  60 CALM      29.89S
WILLISTON      MOSUNNY   56  46  69 SW3       29.86R
DICKINSON      MOSUNNY   56  42  59 S9        29.90S
HETTINGER      SUNNY     53  43  68 S3        29.95F
$$

 *****  OTHER OBSERVATIONS NORTHEAST NORTH DAKOTA  *****

CITY           SKY/WX    TMP DP  RH WIND       PRES   REMARKS
WALHALLA       FAIR      72  45  37 W21G30    29.77S
LANGDON        FAIR      66  45  45 W22G31    29.84S
CAVALIER       FAIR      72  45  37 W24G33    29.78S
GRAFTON        FAIR      68  46  45 W21G26    29.82S
CANDO          FAIR      63  46  55 W13       29.88S
FORT TOTTEN      N/A     61  46  57 SW7       29.95S
ROLLA          FAIR      66  41  39 W20G26    29.85S
RUGBY          FAIR      63  46  55 SW12      29.86S
 ***** THE ABOVE OBSERVATIONS ARE NON NWS ARE NOT QUALITY
        CONTROLLED AND MAY MIS-REPORT RAIN FOR SNOW...
$$

 *****  OTHER OBSERVATIONS SOUTHEAST NORTH DAKOTA *****

CITY           SKY/WX    TMP DP  RH WIND       PRES   REMARKS
COOPERSTOWN    NOT AVBL
VALLEY CITY    FAIR      63  45  51 W8        29.93R
OAKES            N/A    N/A N/A N/A MISG        N/A
GWINNER        FAIR      55  41  58 SW14      29.94S
BUFFALO          N/A     64  41  44 W13         N/A
WYNDMERE         N/A     57  39  51 S7          N/A
 ***** THE ABOVE OBSERVATIONS ARE NON NWS ARE NOT QUALITY
       CONTROLLED AND MAY MIS-REPORT RAIN FOR SNOW...
$$

  *****  WEATHER ACROSS NORTHERN MINNESOTA  *****

CITY           SKY/WX    TMP DP  RH WIND       PRES   REMARKS
FLAG ISLAND    SUNNY     48  37  66 S14       29.80F
WARROAD        SUNNY     57  36  44 S12G18    29.83F
ROSEAU         SUNNY     61  37  41 S20       29.82F
HALLOCK        SUNNY     61  37  41 S15       29.80S
THF RVR FALLS  SUNNY     61  34  36 S14       29.89S
HALSTAD        NOT AVBL
FOSSTON        SUNNY     59  28  31 S18       29.92F
BAUDETTE       SUNNY     55  34  45 S13       29.87F
WASKISH        SUNNY     57  30  35 S13G20    29.90F
CROOKSTON      SUNNY     61  37  41 S14       29.88S
$$
  *****  WEATHER ACROSS CENTRAL AND WEST MINNESOTA  *****

CITY           SKY/WX    TMP DP  RH WIND       PRES   REMARKS
BEMIDJI        MOSUNNY   55  29  36 S12       29.94F
PARK RAPIDS    PTSUNNY   49  28  44 E7        30.01R
WADENA         SUNNY     55  32  41 S6        30.00R
DETROIT LAKES  SUNNY     55  36  47 S10       29.97S
MOORHEAD       SUNNY     57  34  41 S13       29.93S
FERGUS FALLS   SUNNY     57  36  44 S10       29.95F
ELBOW LAKE     FAIR      57  37  46 SE12      29.99S
MORRIS MN      SUNNY     55  37  50 S9        29.99F
STAPLES        CLOUDY    46  32  57 S6        30.01F
WHEATON        SUNNY     61  39  44 S8        29.99S
$$
  *****  WEATHER ELSEWHERE ACROSS MINNESOTA  *****

CITY           SKY/WX    TMP DP  RH WIND       PRES   REMARKS
DULUTH         LGT RAIN  43  35  73 S6        30.01R
INTRNTL FALLS  MOSUNNY   48  35  60 S7        29.90R
ELY            MOSUNNY   46  34  61 S8        29.97F
CLOQUET        LGT RAIN  45  36  70 CALM      30.01S
BRAINERD       PTSUNNY   49  30  48 S3        30.04R
HIBBING        CLOUDY    42  33  70 SW5       30.00R
ALEXANDRIA     MOSUNNY   53  36  52 S7        30.03R
SAINT CLOUD    MOSUNNY   49  31  49 S12       30.03F
MINNEAPOLIS    PTSUNNY   51  30  44 CALM      30.07R
$$

  *****  WEATHER ACROSS SOUTH DAKOTA  *****

CITY           SKY/WX    TMP DP  RH WIND       PRES   REMARKS
SIOUX FALLS    MOSUNNY   48  43  82 CALM      30.06R
BROOKINGS      SUNNY     47  39  74 CALM      30.03S
WATERTOWN      SUNNY     48  38  68 S7        30.01S
HURON          SUNNY     52  43  71 S5        30.01R
SISSETON         N/A     64  38  38 W12       29.94S
ABERDEEN       SUNNY     49  41  74 S9        29.98R
MITCHELL       SUNNY     53  43  68 S3        30.04R
PIERRE         SUNNY     51  44  77 E3        29.98S
MOBRIDGE       SUNNY     54  46  74 SE10      29.94R
RAPID CITY     SUNNY     49  43  80 E3        29.96S
$$

  *****  SOME WEATHER IN NEARBY STATES *****

CITY           SKY/WX    TMP DP  RH WIND       PRES   REMARKS
GLASGOW MT     SUNNY     55  42  61 SE12      29.81S
GREAT FALLS MT MOCLDY    45  39  79 W7        29.89R
CHEYENNE WY    PTSUNNY   47  36  65 W8        30.15S
SCOTTSBLUFF NE MOSUNNY   54  43  66 E5        30.06S
OMAHA NE       MOSUNNY   50  44  80 CALM      30.08R
DES MOINES IA  MOSUNNY   52  33  48 E5        30.08R
DAVENPORT IA   SUNNY     45  35  68 N15       30.05R
CHICAGO IL     MOSUNNY   44  35  70 N12       29.97R
EAU CLAIRE WI  SUNNY     42  36  79 CALM      30.07R
LA CROSSE WI   SUNNY     47  35  63 NW3       30.07R
$$

  *****  SOME NATIONAL WEATHER *****

CITY           SKY/WX    TMP DP  RH WIND       PRES   REMARKS
LA GUARDIA NY  CLOUDY    50  44  80 NE14      29.70S
RALEIGH NC     PTSUNNY   61  57  88 VRB5      29.57S
ATLANTA GA     MOSUNNY   53  44  71 NW16G22   29.79R
NEW ORLEANS LA SUNNY     70  58  65 N9        29.93R
OKLAHOMA CITY  SUNNY     56  46  69 NW5       30.11R
ALBUQUERQUE NM CLEAR     54  24  31 N12       30.21R
SALT LAKE CITY CLOUDY    64  34  32 SE12      29.92F
LOS ANGELES CA CLOUDY    60  52  74 NW3       29.90S
BOISE ID       PTCLDY    56  44  64 W7        29.88S
SEATTLE WA     MOCLDY    49  43  80 N7        30.03S
$$

*** WEATHER ACROSS MANITOBA...SASKATCHEWAN AND ONTARIO ***
                ***ONTARIO***

CITY           SKY/WX    TMP DP  RH WIND       PRES   REMARKS
GERALDTON      PTSUNNY   37  34  87 S6        29.92F
THUNDER BAY    PTSUNNY   41  34  75 CALM      29.99R
SIOUX LOOKOUT  PTSUNNY   50  36  57 S7        29.82R
TORONTO        CLOUDY    50  45  81 NE9       29.83R
BIG TROUT LK   SUNNY     46  32  57 W7        29.65R
PICKLE LAKE    MOSUNNY   50  32  50 SW12G17   29.75F
DRYDEN         SUNNY     50  34  53 SW12      29.82S
KENORA         MOSUNNY   54  34  47 SW15G23   29.80F
$$
                *** MANITOBA***

CITY           SKY/WX    TMP DP  RH WIND       PRES   REMARKS
BRANDON        MOSUNNY   59  43  55 SW15      29.78S
DAUPHIN        SUNNY     70  41  35 W10       29.71R
ISLAND LAKE    CLOUDY    48  36  61 SE5       29.63
PILOT MOUND      N/A     63  45  51 SW10        N/A
THE PAS        PTSUNNY   57  43  58 W8        29.57R
THOMPSON       CLOUDY    41  30  65 NE14G29   29.69R
WINNIPEG       MOSUNNY   63  43  48 SW10      29.72F
LYNN LAKE      MOSUNNY   41  32  70 E13G21    29.68R
CHURCHILL      PTSUNNY   23  18  80 NE14      29.92R WCI  11
GILLAM         CLOUDY    32  27  80 NE13G23   29.79R WCI  22
$$
                ***SASKATCHEWAN***

CITY           SKY/WX    TMP DP  RH WIND       PRES   REMARKS
ESTEVAN        CLOUDY    59  45  58 SW7       29.82R
KINDERSLEY     PTSUNNY   52  41  66 SW8       29.73R
LLOYDMINSTER   CLOUDY    55  39  54 N12       29.80R
PRINCE ALBERT  MOSUNNY   55  45  67 W3        29.70R
REGINA         MOSUNNY   55  39  54 VRB2      29.79
YORKTON        SUNNY     57  43  58 S7        29.73R
N. BATTLEFORD  SUNNY     55  39  54 CALM      29.75R   C1F1C2F2C3F3C4F4C5F5C6F6C7F7C8F8C9F9CaFaCbFbCcFcCdFdCe!


USA.gov is the U.S. government's official web portal to all federal, state and local government web resources and services.